Weather History for Point Lay, AK

Change the Weather History Date:

Wednesday, February 6, 2013

  Actual Average Record
Temperature  
Mean Temperature -28 °F -  
Max Temperature -22 °F -9 °F 28 °F (2012)
Min Temperature -33 °F -20 °F -43 °F (2004)
Degree Days  
Heating Degree Days 92    
Moisture  
Dew Point -34 °F    
Average Humidity 70    
Maximum Humidity 76    
Minimum Humidity 68    
Precipitation  
Precipitation 0.00 in - - ()
Sea Level Pressure  
Sea Level Pressure 30.15 in    
Wind  
Wind Speed 0 mph (North)    
Max Wind Speed 0 mph    
Max Gust Speed -    
Visibility 8 miles    
Events Snow    
Averages and records for this station are not official NWS values.
T = Trace of Precipitation, MM = Missing Value Source: NWS Daily Summary

Daily Weather History Graph

Daily Weather History Graph

Search for Another Location

Airport:

Trip Planner

Search our weather history database for the weather conditions in past years. The results will help you decide how hot, cold, wet, or windy it might be!

Date:

Astronomy

Feb. 06, 2013 Rise Set
Actual Time 11:04 AM AKST 5:09 PM AKST
Civil Twilight 9:48 AM AKST 6:25 PM AKST
Nautical Twilight 8:34 AM AKST 7:39 PM AKST
Astronomical Twilight 7:25 AM AKST 8:49 PM AKST
Moon No Moon Rise No Moon Set
Length of Visible Light 8h 36m
Length of Day
6h 05m
Waning Crescent, 15% of the Moon is Illuminated
Feb 6
Waning Crescent
Feb 9
New
Feb 17
First Quarter
Feb 25
Full
Mar 4
Last Quarter

Hourly Weather History & Observations

Time (AKST) Temp. Dew Point Humidity Pressure Visibility Wind Dir Wind Speed Gust Speed Precip Events Conditions
12:56 AM -31.9 °F - N/A% 30.23 in - Calm Calm - N/A   Overcast
1:56 AM -31.9 °F - N/A% 30.23 in - Calm Calm - N/A   Overcast
2:56 AM -31.0 °F - N/A% 30.21 in - Calm Calm - N/A   Overcast
3:56 AM -29.9 °F - N/A% 30.22 in - Calm Calm - N/A   Overcast
4:19 AM -29.2 °F -36.4 °F 68% 30.20 in - Calm Calm - N/A   Mostly Cloudy
4:56 AM -28.8 °F -35.9 °F 69% 30.21 in - Calm Calm - N/A   Overcast
5:56 AM -26.9 °F -33.9 °F 69% 30.21 in - Calm Calm - N/A   Overcast
6:56 AM -24.9 °F -31.0 °F 73% 30.20 in - Calm Calm - N/A   Overcast
7:56 AM -26.9 °F -33.0 °F 73% 30.20 in - Calm Calm - N/A   Mostly Cloudy
8:08 AM -27.4 °F -34.6 °F 69% 30.18 in - Calm Calm - N/A   Clear
8:56 AM -27.4 °F -34.6 °F 69% 30.18 in - Calm Calm - N/A   Clear
9:47 AM -29.2 °F - N/A% 30.18 in - Calm Calm - N/A   Mostly Cloudy
9:56 AM -29.9 °F - N/A% 30.19 in - Calm Calm - N/A   Mostly Cloudy
10:31 AM -32.8 °F - N/A% 30.17 in - Calm Calm - N/A   Clear
10:56 AM -33.0 °F - N/A% 30.19 in - Calm Calm - N/A   Clear
11:56 AM -31.9 °F - N/A% 30.18 in 10.0 mi Calm Calm - N/A   Clear
12:56 PM -29.9 °F - N/A% 30.17 in 10.0 mi Calm Calm - N/A   Clear
1:56 PM -28.8 °F -35.9 °F 69% 30.17 in 10.0 mi Calm Calm - N/A   Partly Cloudy
2:56 PM -27.9 °F -35.0 °F 69% 30.15 in 10.0 mi Calm Calm - N/A   Clear
3:49 PM -27.4 °F -34.6 °F 69% 30.12 in 2.0 mi Calm Calm - 0.00 in Snow Light Snow
3:56 PM -27.9 °F -35.0 °F 69% 30.14 in 4.0 mi Calm Calm - 0.00 in   Haze
4:07 PM -27.4 °F -34.6 °F 69% 30.12 in 2.0 mi Calm Calm - 0.00 in   Haze
4:15 PM -29.2 °F -36.4 °F 68% 30.12 in 9.0 mi Calm Calm - 0.00 in   Partly Cloudy
4:56 PM -28.8 °F -35.9 °F 69% 30.12 in 10.0 mi Calm Calm - 0.00 in   Clear
5:56 PM -29.9 °F - N/A% 30.12 in 10.0 mi Calm Calm - N/A   Partly Cloudy
6:56 PM -27.9 °F -35.0 °F 69% 30.11 in 9.0 mi Calm Calm - N/A   Clear
7:56 PM -28.8 °F -35.9 °F 69% 30.10 in 10.0 mi Calm Calm - N/A   Scattered Clouds
8:03 PM -29.2 °F -36.4 °F 68% 30.08 in 10.0 mi Calm Calm - N/A   Mostly Cloudy
8:56 PM -28.8 °F -35.9 °F 69% 30.09 in 6.0 mi Calm Calm - N/A   Haze
9:56 PM -26.9 °F -33.9 °F 69% 30.07 in 9.0 mi Calm Calm - N/A   Mostly Cloudy
10:03 PM -25.6 °F -32.8 °F 69% 30.05 in 9.0 mi Calm Calm - N/A   Mostly Cloudy
10:10 PM -23.8 °F -29.2 °F 76% 30.05 in 9.0 mi Calm Calm - N/A   Scattered Clouds
10:56 PM -22.0 °F -27.9 °F 74% 30.05 in 9.0 mi Calm Calm - N/A   Partly Cloudy
11:56 PM -27.9 °F -35.0 °F 69% 30.04 in 10.0 mi Calm Calm - N/A   Scattered Clouds